Location: Newark
(45.5167°N, 11.1667°E)
Time: 06:17:53
(UTC+00:00)

Explorer 7 - Pass Details

Date: 21 December 2019
Orbit: 485 x 679 km, 50.3° (Epoch: 25 January)

Event Time Altitude Azimuth Distance (km) Brightness Sun altitude
Rises 12:22:19 0° 255° (WSW) 2,885 10.9 19.3°
Reaches altitude 10° 12:24:35 10° 259° (WSW) 2,010 10.2 19.2°
Maximum altitude 12:29:13 66° 341° (NNW) 716 7.5 18.9°
Drops below altitude 10° 12:34:04 10° 65° (ENE) 2,102 9.4 18.6°
Sets 12:36:29 0° 68° (ENE) 3,029 10.2 18.5°
